Wind_Speed
47 47 47 47 46 46 45 45 45 44 44 44 45 45 45 46 46 46 46 46 46 46 45 45 44 43 44 43 43 43 43 42 41 41 41 42 43 44
47 47 46 46 45 45 45 44 44 44 44 44 43 44 44 45 45 45 45 45 45 43 43 43 42 43 43 43 43 44 44 43 43 43 42 43 44 45
46 46 45 45 44 44 44 44 44 44 44 43 43 43 43 44 44 44 43 43 43 43 43 42 42 43 43 43 43 43 42 43 43 44 43 43 44 45
45 44 44 43 43 43 42 42 43 43 43 42 43 42 43 43 42 42 42 42 42 41 41 41 42 43 44 44 44 44 43 43 44 45 45 45 46 47
43 42 42 41 41 41 41 41 42 42 42 42 42 42 42 41 41 41 41 41 41 41 41 41 42 43 44 45 45 45 45 46 46 47 48 48 48 49
41 40 40 40 39 39 40 41 41 41 41 41 41 41 41 41 41 41 41 41 42 42 42 43 43 44 45 45 46 46 47 48 48 48 49 49 50 50
38 38 38 38 38 39 39 40 40 40 40 40 41 41 41 41 41 41 42 42 42 42 42 43 44 45 45 46 47 48 48 48 48 49 49 50 51 51
36 36 37 37 37 38 38 39 39 39 40 40 40 41 41 41 42 42 43 43 43 43 43 44 45 45 46 46 46 46 47 47 48 48 49 50 51 51
35 35 36 36 37 38 38 38 39 39 39 40 40 40 41 42 43 43 44 44 43 43 44 44 45 45 46 46 46 46 46 47 47 48 49 49 50 51
34 35 35 36 37 37 37 37 38 38 39 40 40 41 42 42 43 43 44 44 44 45 45 45 46 46 47 47 47 46 46 47 47 47 48 49 51 51
34 35 35 36 36 36 36 37 37 38 39 40 41 41 42 42 43 44 44 44 45 46 46 46 46 46 46 47 48 48 48 48 48 48 48 49 49 49
34 35 35 35 35 36 36 37 38 39 40 40 41 42 42 43 44 45 45 46 46 46 47 47 47 47 46 47 49 50 49 48 48 48 47 47 46 45
34 34 34 34 35 36 36 37 38 39 40 41 42 43 44 45 45 46 46 47 47 47 48 48 48 48 48 47 48 50 50 49 48 47 46 45 43 42
33 33 34 34 35 35 36 37 38 40 41 42 43 44 45 46 46 46 47 47 48 48 49 49 49 49 49 48 47 48 49 48 47 46 44 42 40 39
32 33 33 34 35 36 37 38 40 41 42 43 44 45 46 46 47 47 48 48 48 49 50 50 50 50 49 48 46 46 46 46 46 45 42 40 38 37
32 33 33 34 35 37 38 40 41 42 43 44 45 45 46 47 47 48 48 49 50 50 51 52 51 50 48 47 46 45 45 43 43 43 41 39 38 36
32 33 34 35 37 38 39 41 42 43 43 44 45 46 47 47 48 49 50 50 51 51 51 52 51 49 47 46 45 44 42 41 40 39 38 37 37 36
33 34 35 36 38 39 40 41 42 43 44 45 46 47 47 48 49 50 51 51 51 51 51 51 51 49 46 45 44 42 40 39 38 37 36 34 34 36
34 35 36 38 39 40 41 42 43 44 45 46 47 48 48 49 50 51 51 51 50 50 50 50 49 47 44 41 40 41 40 38 37 36 35 33 32 33
35 36 37 39 40 41 42 43 44 45 46 47 47 48 49 49 50 50 50 50 50 50 48 48 47 46 44 41 37 38 41 39 37 35 35 34 32 33
36 37 38 40 41 41 42 43 44 45 46 47 47 48 49 49 49 50 50 50 50 48 46 45 45 45 44 41 38 36 39 40 39 36 35 34 33 32
37 38 39 40 41 42 43 44 45 46 46 47 47 48 48 49 49 50 50 49 49 47 45 43 43 43 43 41 39 37 36 38 39 37 36 35 33 31
39 40 41 42 43 44 44 45 45 46 46 47 47 48 48 49 49 49 49 49 48 46 44 42 42 42 42 41 39 37 36 36 37 36 36 36 34 32
Wind_Direction
286 288 289 290 291 291 292 293 294 294 295 296 296 296 297 297 297 297 296 295 293 292 292 291 288 288 287 286 285 283 280 279 277 275 271 269 268 266
286 288 289 290 290 291 292 293 293 295 296 296 296 296 297 298 298 298 297 295 295 294 293 292 290 290 289 288 287 284 281 278 276 275 273 270 267 266
285 287 288 289 289 291 292 293 294 295 296 296 297 297 298 299 299 298 298 297 296 294 293 292 291 291 290 289 288 285 281 279 277 275 273 270 268 268
284 286 287 288 289 290 291 293 294 295 295 296 297 298 299 300 300 299 298 298 297 295 294 293 292 291 291 290 288 286 283 280 278 276 274 272 270 268
284 285 287 288 289 290 292 293 294 295 295 296 297 298 299 300 300 300 299 298 298 297 296 295 293 292 291 290 288 286 283 282 279 277 275 274 272 270
283 285 287 288 289 291 292 293 294 295 296 297 298 299 299 299 300 300 300 299 299 298 298 296 295 293 292 290 288 286 284 282 280 278 277 275 273 271
284 285 287 288 290 292 293 294 295 296 297 297 298 299 299 299 300 300 301 300 300 300 299 298 297 296 293 292 290 287 285 284 281 279 277 275 274 273
283 285 287 289 291 292 293 294 295 297 297 298 299 300 300 300 300 300 301 301 301 301 300 299 299 297 295 293 291 289 287 285 283 281 279 277 275 274
284 285 288 289 290 293 293 295 296 297 298 299 300 300 301 301 301 302 302 301 300 301 300 300 300 298 297 295 293 291 289 287 285 283 281 279 277 275
284 286 288 290 291 293 294 296 297 297 299 300 300 301 301 302 303 303 303 302 301 301 301 301 301 300 299 297 294 292 291 289 287 285 284 281 279 276
284 286 289 290 292 293 294 295 297 299 300 301 301 302 303 303 304 304 303 303 302 302 302 302 302 301 300 298 296 294 293 290 288 286 285 283 281 277
285 287 289 290 292 294 295 296 298 300 302 302 302 303 303 305 305 304 304 303 303 302 302 303 302 301 300 299 297 296 294 292 290 288 286 285 282 278
286 288 290 291 293 294 296 298 300 302 303 303 303 303 304 305 305 305 305 305 304 303 303 303 302 301 301 300 297 296 295 294 291 289 288 286 283 279
287 289 291 292 293 294 297 300 301 303 303 304 304 304 305 306 306 306 306 306 305 304 304 303 303 302 302 301 298 296 295 294 292 291 290 288 285 280
288 290 291 293 294 296 298 300 302 303 304 304 305 305 306 306 307 307 307 306 306 305 305 305 304 304 303 301 299 296 294 293 293 292 291 289 286 282
288 290 292 294 295 297 299 301 303 304 305 305 306 306 306 307 307 308 308 307 307 306 306 306 305 305 304 302 300 297 294 292 291 292 291 289 286 283
289 291 293 295 297 299 301 302 304 305 306 306 307 307 307 307 308 308 308 308 308 307 307 306 306 306 305 304 302 298 295 292 291 290 289 287 285 283
291 292 294 296 298 300 302 303 304 305 306 307 307 308 309 309 309 309 309 309 309 308 308 307 306 306 306 306 304 300 297 294 292 290 288 285 282 281
292 293 295 297 299 301 302 304 305 306 307 308 308 309 310 310 310 310 310 310 310 310 309 308 307 307 307 306 304 301 298 296 294 291 289 286 281 278
292 294 296 298 300 301 303 305 306 307 308 309 309 310 310 311 311 311 312 312 312 312 310 309 308 308 308 308 305 301 299 297 295 292 290 287 284 280
293 295 297 299 301 302 304 305 307 308 309 310 311 311 312 312 312 312 313 313 313 313 311 310 309 309 309 308 306 301 298 297 296 294 291 288 285 282
294 296 298 300 301 302 304 305 306 308 309 310 312 312 313 313 313 313 313 314 314 313 312 311 310 310 310 309 307 303 299 297 297 296 293 290 287 282
295 297 299 300 301 303 304 305 306 307 309 311 312 312 313 314 314 314 314 315 314 313 312 312 311 311 310 310 308 305 301 297 295 295 294 292 289 285
Height
5746 5743 5741 5738 5735 5732 5729 5726 5724 5722 5719 5715 5711 5707 5702 5699 5695 5691 5686 5682 5679 5676 5672 5670 5667 5665 5664 5662 5660 5659 5659 5659 5658 5658 5659 5659 5660 5660
5735 5733 5730 5727 5724 5721 5719 5716 5712 5710 5707 5704 5700 5696 5692 5688 5684 5679 5675 5671 5668 5664 5661 5659 5656 5654 5652 5650 5648 5647 5646 5646 5645 5645 5646 5646 5646 5647
5724 5722 5719 5717 5714 5711 5708 5705 5702 5699 5696 5693 5689 5685 5681 5677 5673 5668 5664 5660 5656 5653 5650 5647 5644 5642 5640 5638 5636 5635 5634 5633 5632 5632 5632 5632 5632 5633
5713 5711 5709 5706 5703 5701 5698 5694 5691 5688 5685 5682 5678 5674 5670 5666 5662 5657 5653 5649 5646 5642 5639 5636 5633 5631 5628 5626 5624 5622 5621 5619 5619 5618 5618 5618 5618 5617
5702 5700 5698 5696 5693 5690 5687 5684 5681 5677 5674 5671 5667 5663 5659 5655 5651 5647 5643 5639 5635 5631 5627 5624 5621 5618 5616 5613 5611 5608 5607 5605 5604 5603 5602 5602 5602 5602
5692 5690 5688 5685 5683 5680 5677 5674 5670 5667 5663 5660 5656 5653 5649 5645 5641 5637 5633 5628 5624 5620 5616 5612 5609 5606 5603 5600 5597 5594 5592 5590 5589 5587 5586 5586 5585 5585
5682 5680 5678 5676 5673 5670 5667 5664 5660 5657 5653 5649 5646 5642 5638 5634 5630 5626 5621 5617 5613 5609 5604 5600 5597 5593 5589 5586 5582 5579 5577 5575 5573 5571 5570 5569 5568 5567
5672 5670 5668 5666 5663 5660 5657 5653 5650 5647 5643 5639 5635 5631 5627 5623 5619 5615 5610 5606 5601 5598 5593 5588 5584 5579 5575 5571 5568 5565 5562 5559 5557 5555 5553 5552 5550 5549
5663 5661 5658 5656 5653 5650 5647 5643 5640 5636 5633 5629 5625 5621 5617 5613 5608 5603 5598 5593 5589 5585 5580 5575 5570 5566 5561 5557 5554 5550 5547 5544 5542 5539 5537 5535 5533 5531
5653 5651 5649 5646 5644 5641 5637 5634 5630 5627 5623 5619 5615 5610 5606 5601 5596 5592 5586 5581 5576 5572 5568 5563 5557 5552 5547 5543 5539 5535 5532 5529 5526 5523 5520 5518 5515 5513
5644 5642 5639 5637 5634 5631 5628 5624 5621 5617 5612 5608 5604 5599 5594 5590 5585 5580 5574 5570 5564 5559 5554 5550 5545 5540 5534 5528 5524 5520 5516 5513 5510 5507 5504 5501 5498 5496
5635 5633 5630 5627 5624 5621 5618 5615 5611 5607 5602 5598 5593 5588 5583 5578 5573 5568 5562 5557 5551 5546 5541 5537 5531 5526 5522 5515 5509 5504 5500 5497 5494 5491 5487 5484 5481 5479
5625 5623 5621 5618 5615 5612 5609 5605 5601 5597 5592 5587 5582 5577 5572 5567 5561 5555 5550 5544 5538 5533 5528 5523 5518 5512 5507 5502 5495 5488 5484 5480 5476 5473 5470 5468 5465 5463
5616 5614 5611 5609 5606 5602 5599 5595 5591 5587 5582 5577 5572 5566 5561 5555 5549 5543 5537 5531 5525 5520 5514 5509 5504 5498 5492 5487 5481 5475 5468 5464 5460 5457 5454 5452 5449 5447
5607 5605 5602 5599 5596 5593 5589 5585 5581 5576 5571 5566 5560 5554 5549 5543 5536 5530 5524 5518 5512 5506 5500 5494 5489 5483 5477 5472 5467 5460 5455 5449 5444 5442 5439 5437 5435 5433
5598 5595 5593 5590 5587 5583 5579 5575 5570 5565 5560 5555 5549 5542 5536 5530 5524 5518 5512 5505 5499 5492 5485 5479 5473 5468 5462 5456 5451 5445 5440 5436 5431 5427 5425 5423 5421 5420
5589 5586 5584 5580 5577 5573 5569 5564 5559 5554 5549 5543 5537 5531 5524 5518 5512 5505 5499 5492 5486 5479 5471 5464 5458 5453 5447 5442 5436 5430 5425 5421 5418 5415 5413 5411 5409 5407
5580 5577 5574 5570 5567 5563 5558 5553 5548 5543 5537 5532 5526 5519 5513 5506 5499 5492 5486 5479 5472 5465 5458 5450 5444 5438 5434 5428 5422 5416 5412 5408 5405 5403 5401 5400 5399 5395
5570 5567 5564 5560 5556 5552 5547 5542 5537 5532 5526 5520 5514 5507 5501 5494 5487 5480 5473 5466 5459 5452 5444 5436 5430 5425 5420 5416 5410 5403 5399 5396 5393 5391 5389 5388 5387 5385
5561 5557 5554 5550 5546 5541 5536 5531 5526 5520 5514 5508 5502 5495 5489 5482 5475 5467 5460 5453 5446 5439 5431 5423 5417 5411 5407 5403 5399 5393 5385 5383 5381 5379 5377 5376 5375 5374
5550 5547 5543 5539 5535 5530 5525 5520 5514 5509 5503 5496 5490 5483 5476 5469 5462 5455 5448 5440 5433 5427 5420 5413 5405 5399 5394 5389 5386 5382 5376 5370 5368 5367 5365 5364 5363 5362
5540 5536 5532 5528 5524 5519 5514 5509 5503 5497 5491 5485 5478 5471 5464 5457 5450 5443 5435 5428 5421 5414 5408 5402 5395 5388 5382 5377 5373 5370 5366 5360 5356 5353 5351 5350 5349 5349
5529 5526 5521 5517 5512 5507 5502 5497 5491 5485 5479 5473 5466 5459 5452 5445 5438 5431 5424 5416 5409 5402 5396 5391 5384 5378 5371 5366 5362 5358 5354 5350 5346 5343 5340 5336 5335 5335